Location: Goll?ig?dem
(16.6773°N, 80.7332°E)
Time: 02:01:20
(UTC+00:00)

Envisat - Pass Details

Date: 29 September 2021
Orbit: 764 x 766 km, 98.2° (Epoch: 17 October)

Event Time Altitude Azimuth Distance (km) Brightness Sun altitude
Rises 23:54:51 0° 2° (N) 3,221 6.3 -8.5°
Reaches altitude 10° 23:57:14 10° 356° (N) 2,295 5.4 -7.9°
Maximum altitude 00:02:03 46° 284° (WNW) 1,015 3.3 -6.8°
Drops below altitude 10° 00:06:52 10° 212° (SSW) 2,291 5.2 -5.6°
Sets 00:09:14 0° 206° (SSW) 3,216 6.0 -5.1°
